STARLINK-30196, 57448

Orbit data source: Space-Track

STARLINK-30196, 57448 is a payload satellite owned by SpaceX/Seattle (US) in LEO that was launched on Mon, 24 Jul 2023 UTC via an FALCON 9 launch vehicle from the Air Force Eastern Test Range (AFETR). Payload-class satellites include a variety of spacecraft equipped with specific instruments for various scientific and technological missions. These include communications satellites like Starlink; space stations such as the ISS; scientific satellites like the Hubble; Earth observation satellites from companies like Planet Labs, Umbra, and HawkEye 360; GPS; miniature CubeSats for education and research; and military/defense satellites.

Loading next visibility...
Identifier
57448, 2023-105U
Orbit
LEO
Country
Flag of USUS
Related business
Manufacturer
SpaceX/Seattle
Mission
Operational Commercial Communications
Bus & Motor
STARLINK V2M, Unknown motor
Mass
730 kg wet, ~700 kg dry
Launch date (UTC)
2023-07-24 (3 years ago)
Launch vehicle
FALCON 9
Launch site
Air Force Eastern Test Range (AFETR)
Object type
Payload
Rocket body
Debris
Shape & HBR
Box + 2 Pan, 17.7 m
Radar Cross Section
33.884 m², Large (>1 m²)

Expand to show TLE details & history
Last TLE update: 2 days ago

TLE from 2 days ago
0 STARLINK-30196
1 57448U 23105U   26171.08340327 -.00000082  00000-0  65413-5 0  9998
2 57448  43.0036  44.8134 0001165 270.4091  89.6627 15.27575255161040
Epoch: 2026-06-20T02:00Z
TLE epoch observation values (Epoch: 2026-06-20T02:00:06.042Z)
Latitude
-0.00004°
Longitude
106.48507°
Altitude
482.835 km
Speed
7.626 km/s
True Right ascension
02h 59m 15s
True Declination
0° 00' 00"
Sunlit
Object was in daylight at epoch
Visualization orbit readout
Latitude
Unknown
Longitude
Unknown
Altitude
Unknown
Speed
Unknown
Apparent Right ascension
Unknown
Apparent Declination
Unknown
Sunlit
N/A
Visualization observer readout
Local Sidereal Time
21:28:09
Azimuth
Unknown
Elevation
Unknown
Doppler factor
Unknown
Orbital elements
Apogee altitude
485.807 km
Perigee altitude
484.208 km
Semi-major axis
6,863.145 km
Eccentricity
0.00012
Inclination
43.0036°
RAAN
44.8134°
Arg. of periapsis
270.4091°
True anomaly
89.67605°
Mean anomaly
89.6627°
Eccentric anomaly
89.66937°
Mean motion
3.81732 °/min
Orbital period
94.31 mins
BSTAR
0.0000065413
Loading maneuver chart data...
Computing Atmospheric mass density...

Documentation

Showing up to 5 results
|